Regional Weather Roundup
Issued by NWS Spokane, WA

Home | Current Version | Previous Version | Text Only | Print | Product List | Glossary On
Versions: 1 2 3 4 5 6 7 8 9 10 11 12 13 14 15 16 17 18 19 20 21 22 23 24 25 26 27 28 29 30 31 32 33 34 35 36 37 38 39 40 41 42 43 44 45 46 47 48 49 50
177
NZUS01 KOTX 242225
RWROTX

Eastern Washington/Northern Idaho Roundup
National Weather Service, Spokane WA
200 PM PST FRI NOV 24 2017

Note: "fair" indicated few or no clouds below 12,000 feet with no
significant weather and/or obstructions to visibility.

...Northeast Washington and Northern Idaho Panhandle...

CITY           SKY/WX    TMP DP  RH WIND       PRES   REMARKS
Spokane Intl   PTSUNNY   45  35  68 SW16G24   30.05F
Spokane Downto MOSUNNY   47  35  63 S13       30.07S
Coeur d Alene  CLOUDY    44  35  70 S10       30.07R
Deer Park      PTSUNNY   45  34  65 SW14      30.06S
Sandpoint      CLOUDY    43  32  65 SW3       30.07R
Bonners Ferry  FAIR      41  32  70 S13G20    30.03S

...Southeast Washington and southern Idaho Panhandle...

CITY           SKY/WX    TMP DP  RH WIND       PRES   REMARKS
Walla Walla    MOSUNNY   53  37  54 SW13      30.09F
Pullman/Moscow SUNNY     46  34  62 SW15      30.10F
Lewiston       MOSUNNY   55  35  47 CALM      30.09F
Lowell           N/A     47  42  83 CALM      30.13S
Grangeville    FAIR      46  30  53 SW15      30.09S

...Columbia Basin...

CITY           SKY/WX    TMP DP  RH WIND       PRES   REMARKS
Ephrata        PTSUNNY   52  26  36 SW13G22   30.04S
Moses Lake     PTSUNNY   51  33  50 SW13      30.06R
Pasco          SUNNY     56  39  53 SW14      30.10F
Richland       CLEAR     57  41  55 S12G18    30.09S
Hermiston      SUNNY     56  37  49 W9        30.10F
Pendleton      SUNNY     51  35  54 CALM      30.09F

...East Slopes Cascades...

CITY           SKY/WX    TMP DP  RH WIND       PRES   REMARKS
The Dalles     SUNNY     56  41  57 N8        30.10F
Yakima         MOSUNNY   55  34  45 CALM      30.06F
Ellensburg     CLOUDY    48  34  58 W7        30.05F
Stampede Pass  CLOUDY    35  32  88 VRB3      30.02F
Wenatchee      CLOUDY    47  34  60 CALM      30.04F
Omak           CLOUDY    47  35  63 S10       30.02S
Sunnyside      CLEAR     54  35  47 SE3       30.07S

...Southern British Columbia...

CITY           SKY/WX    TMP DP  RH WIND       PRES   REMARKS
Penticton      CLOUDY    46  36  66 S14       29.97F
Castlegar      CLOUDY    41  36  81 S8        30.05R
Cranbrook      PTSUNNY   43  30  61 S13G20    29.93R
Osoyoos          N/A     48  37  66 S5          N/A
Creston          N/A     48  34  57 S7          N/A

...Western Montana...

CITY           SKY/WX    TMP DP  RH WIND       PRES   REMARKS
Kalispell      CLOUDY    45  28  51 SW12      30.01R
Libby            N/A     46  27  46 S6        30.02R
Missoula       PTSUNNY   45  26  47 W15       30.07R

...Neighboring Cities...

CITY           SKY/WX    TMP DP  RH WIND       PRES   REMARKS
Seattle        CLOUDY    50  41  71 S10       30.08S
Portland       PTSUNNY   55  42  61 S14       30.12F
Boise          SUNNY     51  28  41 NW6       30.11S
Great Falls    SUNNY     43  20  39 SW23G37   29.90R
Calgary        PTSUNNY   45  19  36 SW7       29.73R



USA.gov is the U.S. government's official web portal to all federal, state and local government web resources and services.